Weather in Seoul

South Korea     37˚34′14″N   126˚58′36″E
temp.,
°C
wind,
m/s
gust,
m/s
humid.,
%
clouds,
%
prec.,
mm/h
press.,
hPa
HPBL,
m
2 december, wed
wed200:00+3˚nw1223100 0.1 1033368
03:00+2˚nw2325100 0.3 1033328
06:00+2˚nnw1324100 0.4 1032361
09:00+2˚nw1223100 0.4 1032342
12:00+4˚nw2219100 0.0 1031579
15:00+5˚nw341694 0.0 1029757
18:00+4˚nw342564 0.0 1029730
21:00+3˚wnw353373 0.0 1030466
3 december, thu
thu300:00+2˚wnw253275 0.0 1030445
03:00+2˚nw373687 0.0 1029643
06:00+1˚nw383733 0.0 1029782
09:00+1˚nw484217 0.0 1030813
12:00+3˚nw47316 0.0 1030996
15:00+4˚nw46275 0.0 10281203
18:00+2˚nw46330 0.0 1030997
21:00nw36400 0.0 1030608
4 december, fri
fri400:00wnw24350 0.0 1030527
03:00−1˚w12371 0.0 1030289
06:00−1˚wnw134133 0.0 1030296
09:00wnw133824 0.0 1031365
12:00+2˚nw35350 0.0 1030774
15:00+4˚wnw35360 0.0 10281078
18:00+3˚nw25430 0.0 10291204
21:00+2˚nnw25477 0.0 1030483
5 december, sat
sat500:00+1˚nw11510 0.0 103029
03:00+1˚e01536 0.0 102922
06:00+1˚ese005497 0.0 103024
09:00+1˚s015564 0.0 1031120
12:00+4˚nw23485 0.0 1030890
15:00+5˚nw244321 0.0 10291248
18:00+4˚wnw234693 0.0 1030919
21:00+4˚nw114696 0.0 1030118
6 december, sun
sun600:00+3˚nw014965 0.0 103022
03:00+3˚e115365 0.0 103026
06:00+2˚ese115973 0.0 103022
09:00+3˚se116069 0.0 103078
12:00+6˚ssw125451 0.0 1029668
15:00+7˚wsw355265 0.0 10271332
18:00+6˚wsw265123 0.0 1028415
21:00+5˚wsw125612 0.0 102853